Regional Weather Roundup
Issued by NWS Mobile, AL

Home | Current Version | Previous Version | Text Only | Print | Product List | Glossary On
Versions: 1 2 3 4 5 6 7 8 9 10 11 12 13 14 15 16 17 18 19 20 21 22 23 24 25 26 27 28 29 30 31 32 33 34 35 36 37 38 39 40 41 42 43 44 45 46 47 48 49 50
491
ASUS44 KMOB 131112
RWRMOB
REGIONAL WEATHER ROUNDUP
NATIONAL WEATHER SERVICE MOBILE AL
500 AM CST SAT FEB 13 2016

NOTE: "FAIR" INDICATES FEW OR NO CLOUDS BELOW 12,000 FEET WITH NO
      SIGNIFICANT WEATHER AND/OR OBSTRUCTIONS TO VISIBILITY.

  * THESE STATIONS ARE PART OF THE UNIVERSITY OF SOUTH ALABAMA
    MESONET AND ARE NOT UNDER NWS OR FAA QUALITY CONTROL.

ALZ061>064-131200-
COASTAL ALABAMA

CITY           SKY/WX    TMP DP  RH WIND       PRES   REMARKS
MOBILE REG APT CLEAR     45  30  55 N10       30.34R
BROOKLEY FIELD CLEAR     48  30  49 N9G20     30.35R
USA CAMPUS*    NOT AVBL
DOG RIVER*     NOT AVBL


CITY           SKY/WX    TMP DP  RH WIND       PRES   REMARKS
MOUNT VERNON*  NOT AVBL
SARALAND*      NOT AVBL
BAY MINETTE*   NOT AVBL
LOXLEY*        NOT AVBL
ROBERTSDALE*   NOT AVBL
FAIRHOPE*      NOT AVBL
ELBERTA*       NOT AVBL
FOLEY*         NOT AVBL
GRAND BAY*     NOT AVBL
DAUPHIN ISLND* NOT AVBL
BON SCOUR NWR* NOT AVBL
GULF SHORES    CLEAR     46  31  55 N5        30.32R

$$

ALZ051>060-131200-
INTERIOR SOUTHWEST AND SOUTH CENTRAL ALABAMA

CITY           SKY/WX    TMP DP  RH WIND       PRES   REMARKS
GREENVILLE     CLEAR     40  25  55 N8        30.31R
EVERGREEN      CLEAR     42  26  53 N6        30.34R
CASTLEBERRY*   NOT AVBL
ATMORE*        NOT AVBL
DIXIE*         NOT AVBL
ANDALUSIA/OPP  CLEAR     46  26  45 NE10G18   30.31R
ANDALUSIA*     NOT AVBL
FLORALA APT    CLEAR     43  29  57 N7        30.33R
FLORALA*       NOT AVBL

$$

FLZ001>006-131200-
WESTERN FLORIDA PANHANDLE

CITY           SKY/WX    TMP DP  RH WIND       PRES   REMARKS
PENSACOLA      CLEAR     47  28  47 N14       30.31R
NAS PENSACOLA  NOT AVBL
MILTON         CLEAR     44  28  53 N6        30.32R
WHTNG S FIELD  PTCLDY    47  28  47 N10       30.32R


CITY           SKY/WX    TMP DP  RH WIND       PRES   REMARKS
WALNUT HILL*   NOT AVBL
JAY*           NOT AVBL
DUKE FIELD     CLEAR     45  31  56 N13       30.29R
CRESTVIEW      PTCLDY    45  30  55 N8        30.32R
VALPARAISO     CLEAR     47  30  51 N17       30.28R
DESTIN         CLEAR     50  33  52 N15       30.29R

$$

MSZ076-079-131200-
INTERIOR SOUTHEAST MISSISSIPPI

CITY           SKY/WX    TMP DP  RH WIND       PRES   REMARKS
LEAKESVILLE*   NOT AVBL
AGRICOLA*      NOT AVBL

$$

MARINE OBSERVATIONS

STATION/POSITION TIME  TEMP    WIND        PRES    WAVE
                       AIR SEA DIR/SP/G            HT/PER
                 (UTC) (F)     (DEG/KT/KT) (MB)    (FT/S)
PASCAGOULA       1000   50     360/  7/ 10 1026.1R
PETIT BOIS ISLND 1000   52      10/ 21/ 25 1026.3R
GRAND BAY        0945   49      10/  9     1027.0R
KATRINA CUT      1000   51      20/ 18       N/A
CEDAR POINT      1000   50      10/ 12     1025.4R
E DAUPHIN ISLAND 1100   51      20/ 20/ 22 1026.8R
MIDDLE BAY LIGHT 1000           20/ 19     1024.7S
USCG MOBILE BAY  1000   49 55   20/  8/ 13 1026.7R
STATE DOCKS      1000   49 53              1026.0R
MEAHER PARK      1000   49     360/  7     1026.4R
WEEKS BAY        0900   51                   N/A
FORT MORGAN      1000   52      20/ 21/ 24 1025.3R
12 S ORANGE BCH  1050   54 65   10/ 21/ 27 1024.8R   4/ 4
PENSACOLA BAY    1000   52 53  360/ 11/ 18 1025.7R

$$

SELECTED LOCATIONS ACROSS THE REGION

CITY           SKY/WX    TMP DP  RH WIND       PRES   REMARKS
NEW ORLEANS    PTCLDY    52  33  48 NE9       30.34R
GULFPORT       CLEAR     47  31  53 N12       30.33R
PASCAGOULA AP  CLEAR     43  33  68 N6        30.34R
PASCAGOULA*    NOT AVBL
HATTIESBURG    CLEAR     44  30  57 N6        30.38R
LAUREL         CLEAR     41  28  60 N9        30.37S
MERIDIAN       CLEAR     38  25  59 N13       30.40R
JACKSON        CLEAR     41  28  60 NE13G22   30.40R
MONTGOMERY     CLEAR     40  23  50 N10       30.35R
TROY           CLEAR     42  24  49 N13       30.31R
KINSTON*       NOT AVBL
GENEVA*        NOT AVBL
ASHFORD*       NOT AVBL
DOTHAN         CLEAR     43  30  60 N16G22    30.32R
PANAMA CITY    CLEAR     48  34  58 NW10      30.26R

$$





USA.gov is the U.S. government's official web portal to all federal, state and local government web resources and services.